User: anonymous   Login
Location: Oshawa
(43.9000°N, 78.8670°W)
Time: 15:50:53
(UTC-04:00)
Language:

CZ-4C R/B - Orbit

View from above orbital plane
View from above orbital plane
View from above satellite
View from above satellite

Ground track
Ground track

The orbit data is extracted from the following two-line orbital elements,

1 32290U 07055B   16241.88483189 +.00003300 +00000-0 +98217-4 0  9993
2 32290 097.5270 336.7637 0071640 093.3565 267.5876 15.32928119486934
Epoch (UTC): 28 August 2016 21:14:09
Eccentricity: 0.0071640
inclination: 97.5270°
perigee height: 418 km
apogee height: 516 km
right ascension of ascending node: 336.7637°
argument of perigee: 93.3565°
revolutions per day: 15.32928119
mean anomaly at epoch: 267.5876°
orbit number at epoch: 48693

The dashed part of the orbit path shows where the satellite is in the earth's shadow,  

DLR